This is the latest recevied weather packets stored in our database for station/object SQ9RHX-11. If no packets are shown the sender has not sent any weather packets the latest 10 day(s).
| Time | Temp. | Humidity | Pressure | Rain* | Wind** | Luminosity | Snow |
|---|---|---|---|---|---|---|---|
| 1777723309 | 26.67° C | 26% | 1023.4 hPa | - | - | - | - |
| 1777721509 | 26.67° C | 27% | 1023.7 hPa | - | - | - | - |
| 1777719709 | 25.56° C | 27% | 1024.1 hPa | - | - | - | - |
| 1777717909 | 26.11° C | 28% | 1024.5 hPa | - | - | - | - |
| 1777716109 | 25.56° C | 30% | 1024.9 hPa | - | - | - | - |
| 1777714309 | 23.89° C | 31% | 1025.2 hPa | - | - | - | - |
| 1777712509 | 24.44° C | 32% | 1025.5 hPa | - | - | - | - |
| 1777710709 | 24.44° C | 36% | 1025.6 hPa | - | - | - | - |
| 1777708911 | 23.33° C | 40% | 1025.8 hPa | - | - | - | - |
| 1777707110 | 21.67° C | 44% | 1026 hPa | - | - | - | - |
| 1777705310 | 20° C | 48% | 1025.9 hPa | - | - | - | - |
| 1777703511 | 17.22° C | 53% | 1026 hPa | - | - | - | - |
| 1777701711 | 16.11° C | 59% | 1026 hPa | - | - | - | - |
| 1777699911 | 15° C | 72% | 1026 hPa | - | - | - | - |
| 1777698111 | 9.44° C | 82% | 1026 hPa | - | - | - | - |
| 1777696309 | 3.33° C | 82% | 1025.9 hPa | - | - | - | - |
| 1777694509 | 2.22° C | 81% | 1025.8 hPa | - | - | - | - |
| 1777692710 | 1.67° C | 80% | 1026 hPa | - | - | - | - |
| 1777690911 | 2.22° C | 79% | 1025.8 hPa | - | - | - | - |
| 1777689111 | 2.22° C | 79% | 1025.9 hPa | - | - | - | - |
| 1777687312 | 2.22° C | 78% | 1025.9 hPa | - | - | - | - |
| 1777683714 | 3.33° C | 76% | 1026 hPa | - | - | - | - |
| 1777681914 | 3.33° C | 76% | 1026.1 hPa | - | - | - | - |
| 1777680115 | 3.89° C | 75% | 1026.2 hPa | - | - | - | - |
| 1777678316 | 4.44° C | 74% | 1026.2 hPa | - | - | - | - |
* Rain since midnight (hover to see other rain measurements)
** Current wind speed in m/s (hover to see current wind gust speed)